Terminal Aerodrome Forecast
Issued by NWS

Home | Current Version | Previous Version | Text Only | Print | Product List | Glossary On
Versions: 1 2 3 4 5 6 7 8 9 10 11 12 13 14 15 16 17
000
FTPA31 PHFO 231836 AAB
TAFSTU
TAF AMD
NSTU 231836Z 2319/2418 VRB04KT 6SM -SHRA VCTS SCT015CB BKN040
      OVC100
      TEMPO 2404/2408 32010KT 1SM +TSRA BKN015CB OVC040=

USA.gov is the U.S. government's official web portal to all federal, state and local government web resources and services.